| time (UTC) | temp F | wind direction | speed MPH | gust MPH | rain 1hr in | rain 24hr in | rain mn in | humidity % | barometer mb |
| 20260504141247 | 77 | 9 | 3.0 | 5.0 | 0.00 | 0.00 | 0.00 | 62 | 1017.9 |
| 20260504140743 | 77 | 134 | 2.0 | 3.0 | 0.00 | 0.00 | 0.00 | 62 | 1017.9 |
| 20260504140239 | 76 | 72 | 5.0 | 7.0 | 0.00 | 0.00 | 0.00 | 62 | 1017.9 |
| 20260504130708 | 73 | 74 | 4.0 | 5.0 | 0.00 | 0.00 | 0.00 | 66 | 1017.7 |
| 20260504130203 | 73 | 327 | 6.0 | 9.0 | 0.00 | 0.00 | 0.00 | 67 | 1017.7 |
| 20260504120127 | 68 | 25 | 5.0 | 7.0 | 0.00 | 0.00 | 0.00 | 79 | 1016.9 |
| 20260504110555 | 64 | 20 | 2.0 | 3.0 | 0.00 | 0.00 | 0.00 | 87 | 1016.8 |
| 20260504100517 | 64 | 263 | 0.0 | 0.0 | 0.00 | 0.00 | 0.00 | 89 | 1016.4 |
| 20260504081910 | 64 | 278 | 1.0 | 1.0 | 0.00 | 0.00 | 0.00 | 88 | 1016.2 |
| 20260504081406 | 64 | 294 | 1.0 | 1.0 | 0.00 | 0.00 | 0.00 | 88 | 1016.5 |
| 20260504080902 | 64 | 280 | 1.0 | 1.0 | 0.00 | 0.00 | 0.00 | 89 | 1016.3 |
| 20260504080400 | 64 | 282 | 0.0 | 0.0 | 0.00 | 0.00 | 0.00 | 89 | 1016.4 |
| 20260504070327 | 64 | 264 | 0.0 | 0.0 | 0.00 | 0.00 | 0.00 | 89 | 1016.6 |
| 20260504060247 | 67 | 302 | 0.0 | 0.0 | 0.00 | 0.00 | 0.00 | 84 | 1016.4 |
| 20260504050715 | 68 | 265 | 0.0 | 1.0 | 0.00 | 0.00 | 0.00 | 81 | 1017.7 |
| 20260504050212 | 68 | 264 | 0.0 | 0.0 | 0.00 | 0.00 | 0.00 | 80 | 1017.7 |
| 20260504045710 | 68 | 286 | 1.0 | 1.0 | 0.00 | 0.00 | 0.00 | 81 | 1017.8 |
| 20260504045210 | 68 | 280 | 0.0 | 1.0 | 0.00 | 0.00 | 0.00 | 81 | 1017.7 |
| 20260504044708 | 68 | 268 | 0.0 | 1.0 | 0.00 | 0.00 | 0.00 | 80 | 1017.8 |
| 20260504044205 | 68 | 266 | 0.0 | 1.0 | 0.00 | 0.00 | 0.00 | 80 | 1017.9 |
| 20260504043702 | 68 | 266 | 0.0 | 0.0 | 0.00 | 0.00 | 0.00 | 80 | 1017.8 |
| 20260504043158 | 68 | 241 | 0.0 | 0.0 | 0.00 | 0.00 | 0.00 | 80 | 1018.0 |
| 20260504042656 | 68 | 249 | 0.0 | 0.0 | 0.00 | 0.00 | 0.00 | 80 | 1017.9 |
| 20260504042152 | 68 | 236 | 1.0 | 1.0 | 0.00 | 0.00 | 0.00 | 80 | 1017.8 |
| 20260504041648 | 68 | 202 | 0.0 | 0.0 | 0.00 | 0.00 | 0.00 | 80 | 1017.8 |
| 20260504041144 | 68 | 137 | 1.0 | 2.0 | 0.00 | 0.00 | 0.00 | 80 | 1017.8 |
| 20260504040642 | 68 | 163 | 1.0 | 1.0 | 0.00 | 0.00 | 0.00 | 81 | 1018.1 |
| 20260504040138 | 68 | 198 | 1.0 | 1.0 | 0.00 | 0.00 | 0.00 | 81 | 1018.0 |
| 20260504035635 | 68 | 214 | 1.0 | 1.0 | 0.00 | 0.05 | 0.05 | 83 | 1018.1 |
| 20260504035132 | 68 | 273 | 0.0 | 1.0 | 0.00 | 0.05 | 0.05 | 83 | 1018.2 |
| 20260504034630 | 68 | 230 | 0.0 | 0.0 | 0.00 | 0.05 | 0.05 | 84 | 1017.9 |
| 20260504034126 | 68 | 247 | 0.0 | 1.0 | 0.00 | 0.05 | 0.05 | 83 | 1018.1 |
| 20260504033624 | 69 | 263 | 0.0 | 0.0 | 0.00 | 0.05 | 0.05 | 83 | 1017.9 |
| 20260504033121 | 69 | 281 | 2.0 | 3.0 | 0.00 | 0.05 | 0.05 | 78 | 1018.2 |
| 20260504032618 | 69 | 237 | 1.0 | 1.0 | 0.00 | 0.05 | 0.05 | 78 | 1017.9 |
| 20260504032115 | 69 | 238 | 0.0 | 0.0 | 0.00 | 0.05 | 0.05 | 78 | 1017.9 |
| 20260504031612 | 69 | 238 | 0.0 | 0.0 | 0.00 | 0.05 | 0.05 | 77 | 1018.0 |
| 20260504031108 | 69 | 221 | 0.0 | 1.0 | 0.00 | 0.05 | 0.05 | 77 | 1018.0 |
| 20260504030605 | 69 | 111 | 4.0 | 5.0 | 0.00 | 0.05 | 0.05 | 77 | 1018.0 |
| 20260504025559 | 69 | 243 | 0.0 | 0.0 | 0.00 | 0.05 | 0.05 | 77 | 1018.0 |
| 20260504025055 | 69 | 139 | 1.0 | 2.0 | 0.00 | 0.05 | 0.05 | 78 | 1018.0 |
| 20260504024553 | 69 | 269 | 1.0 | 1.0 | 0.00 | 0.05 | 0.05 | 78 | 1017.7 |
| 20260504024049 | 69 | 266 | 0.0 | 1.0 | 0.00 | 0.05 | 0.05 | 78 | 1017.9 |
| 20260504023546 | 69 | 260 | 0.0 | 0.0 | 0.00 | 0.05 | 0.05 | 78 | 1018.0 |
| 20260504023042 | 69 | 317 | 0.0 | 1.0 | 0.00 | 0.05 | 0.05 | 78 | 1017.8 |
| 20260504022538 | 69 | 256 | 0.0 | 0.0 | 0.00 | 0.05 | 0.05 | 78 | 1017.9 |
| 20260504022035 | 69 | 245 | 0.0 | 0.0 | 0.00 | 0.05 | 0.05 | 78 | 1017.7 |
| 20260504021532 | 69 | 235 | 0.0 | 0.0 | 0.00 | 0.05 | 0.05 | 78 | 1017.7 |
| 20260504021029 | 69 | 187 | 0.0 | 1.0 | 0.00 | 0.05 | 0.05 | 78 | 1017.5 |
| 20260504020526 | 69 | 213 | 0.0 | 0.0 | 0.00 | 0.05 | 0.05 | 78 | 1017.7 |
| 20260504020022 | 69 | 228 | 0.0 | 0.0 | 0.00 | 0.05 | 0.05 | 78 | 1017.7 |
| 20260504015519 | 69 | 219 | 0.0 | 1.0 | 0.00 | 0.05 | 0.05 | 78 | 1017.5 |
| 20260504015015 | 69 | 190 | 1.0 | 1.0 | 0.00 | 0.05 | 0.05 | 78 | 1017.3 |
| 20260504014511 | 69 | 227 | 1.0 | 1.0 | 0.00 | 0.05 | 0.05 | 78 | 1017.3 |
| 20260504014008 | 69 | 218 | 0.0 | 1.0 | 0.00 | 0.05 | 0.05 | 78 | 1017.3 |
| 20260504013506 | 69 | 230 | 0.0 | 0.0 | 0.00 | 0.05 | 0.05 | 78 | 1017.2 |
| 20260504013002 | 69 | 174 | 1.0 | 2.0 | 0.00 | 0.05 | 0.05 | 78 | 1017.3 |
| 20260504012500 | 69 | 255 | 1.0 | 1.0 | 0.00 | 0.05 | 0.05 | 78 | 1017.4 |
| 20260504011958 | 69 | 175 | 0.0 | 0.0 | 0.00 | 0.05 | 0.05 | 78 | 1017.3 |
| 20260504011454 | 69 | 210 | 0.0 | 0.0 | 0.00 | 0.05 | 0.05 | 77 | 1017.2 |
| 20260504010950 | 70 | 228 | 0.0 | 0.0 | 0.00 | 0.05 | 0.05 | 77 | 1017.1 |
| 20260504010446 | 70 | 190 | 1.0 | 1.0 | 0.00 | 0.05 | 0.05 | 76 | 1017.2 |
| 20260504005942 | 70 | 118 | 4.0 | 5.0 | 0.00 | 0.05 | 0.05 | 76 | 1017.1 |
| 20260504005439 | 70 | 165 | 0.0 | 1.0 | 0.00 | 0.05 | 0.05 | 76 | 1017.1 |
| 20260504004937 | 70 | 87 | 1.0 | 2.0 | 0.00 | 0.05 | 0.05 | 75 | 1017.0 |
| 20260504004434 | 70 | 169 | 1.0 | 2.0 | 0.00 | 0.05 | 0.05 | 75 | 1016.9 |
| 20260504003931 | 71 | 191 | 0.0 | 0.0 | 0.00 | 0.05 | 0.05 | 75 | 1016.9 |
| 20260504003427 | 71 | 179 | 1.0 | 1.0 | 0.00 | 0.05 | 0.05 | 74 | 1016.9 |
| 20260504002924 | 71 | 171 | 2.0 | 2.0 | 0.00 | 0.05 | 0.05 | 74 | 1016.6 |
| 20260504002421 | 71 | 178 | 2.0 | 3.0 | 0.00 | 0.05 | 0.05 | 73 | 1016.7 |
| 20260504001919 | 71 | 206 | 0.0 | 1.0 | 0.00 | 0.05 | 0.05 | 73 | 1016.6 |
| 20260504001416 | 71 | 135 | 1.0 | 2.0 | 0.00 | 0.05 | 0.05 | 73 | 1016.6 |
| 20260504000912 | 71 | 111 | 3.0 | 3.0 | 0.00 | 0.05 | 0.05 | 72 | 1016.4 |
| 20260504000410 | 71 | 170 | 1.0 | 2.0 | 0.00 | 0.05 | 0.05 | 72 | 1016.5 |
| 20260503235907 | 72 | 191 | 1.0 | 1.0 | 0.00 | 0.05 | 0.05 | 73 | 1016.6 |
| 20260503235405 | 72 | 152 | 2.0 | 2.0 | 0.00 | 0.05 | 0.05 | 72 | 1016.6 |
| 20260503234902 | 72 | 104 | 3.0 | 5.0 | 0.00 | 0.05 | 0.05 | 71 | 1016.3 |
| 20260503234359 | 73 | 182 | 1.0 | 1.0 | 0.00 | 0.05 | 0.05 | 71 | 1016.4 |
| 20260503233857 | 73 | 144 | 3.0 | 6.0 | 0.00 | 0.05 | 0.05 | 70 | 1016.3 |
| 20260503233353 | 73 | 131 | 2.0 | 3.0 | 0.00 | 0.05 | 0.05 | 69 | 1016.1 |
| 20260503232849 | 73 | 125 | 2.0 | 3.0 | 0.00 | 0.05 | 0.05 | 69 | 1016.3 |
| 20260503232347 | 73 | 118 | 4.0 | 6.0 | 0.00 | 0.05 | 0.05 | 69 | 1016.2 |
| 20260503231845 | 73 | 103 | 4.0 | 6.0 | 0.00 | 0.05 | 0.05 | 68 | 1016.1 |
| 20260503231342 | 74 | 110 | 4.0 | 6.0 | 0.00 | 0.05 | 0.05 | 68 | 1016.2 |
| 20260503230838 | 74 | 82 | 2.0 | 2.0 | 0.00 | 0.05 | 0.05 | 69 | 1016.2 |
| 20260503230335 | 74 | 144 | 3.0 | 3.0 | 0.00 | 0.05 | 0.05 | 68 | 1016.3 |
| 20260503225833 | 74 | 85 | 3.0 | 3.0 | 0.00 | 0.05 | 0.05 | 68 | 1016.2 |
| 20260503225328 | 75 | 105 | 3.0 | 6.0 | 0.00 | 0.05 | 0.05 | 67 | 1016.2 |
| 20260503224825 | 75 | 148 | 1.0 | 1.0 | 0.00 | 0.05 | 0.05 | 68 | 1016.2 |
| 20260503224322 | 75 | 240 | 1.0 | 1.0 | 0.00 | 0.05 | 0.05 | 67 | 1016.2 |
| 20260503223820 | 75 | 116 | 2.0 | 2.0 | 0.00 | 0.05 | 0.05 | 68 | 1016.1 |
| 20260503223317 | 75 | 153 | 1.0 | 2.0 | 0.00 | 0.05 | 0.05 | 67 | 1016.4 |
| 20260503222813 | 76 | 121 | 2.0 | 2.0 | 0.00 | 0.05 | 0.05 | 66 | 1016.1 |
| 20260503222311 | 76 | 242 | 0.0 | 0.0 | 0.00 | 0.05 | 0.05 | 65 | 1016.1 |
| 20260503221809 | 76 | 251 | 1.0 | 2.0 | 0.00 | 0.05 | 0.05 | 65 | 1016.1 |
| 20260503221307 | 76 | 244 | 1.0 | 1.0 | 0.00 | 0.05 | 0.05 | 65 | 1016.0 |
| 20260503220803 | 76 | 167 | 3.0 | 3.0 | 0.00 | 0.05 | 0.05 | 64 | 1015.9 |
| 20260503220300 | 76 | 208 | 3.0 | 6.0 | 0.00 | 0.05 | 0.05 | 63 | 1015.8 |
| 20260503215757 | 77 | 104 | 4.0 | 5.0 | 0.00 | 0.05 | 0.05 | 64 | 1016.0 |
| 20260503215253 | 76 | 104 | 1.0 | 1.0 | 0.00 | 0.05 | 0.05 | 64 | 1015.9 |
| 20260503214752 | 76 | 174 | 3.0 | 5.0 | 0.00 | 0.05 | 0.05 | 65 | 1016.0 |
| 20260503214249 | 76 | 148 | 1.0 | 1.0 | 0.00 | 0.05 | 0.05 | 65 | 1015.9 |
| 20260503213746 | 77 | 159 | 2.0 | 3.0 | 0.00 | 0.05 | 0.05 | 64 | 1015.8 |
| 20260503213244 | 77 | 44 | 3.0 | 3.0 | 0.00 | 0.05 | 0.05 | 64 | 1016.0 |
| 20260503212740 | 77 | 175 | 1.0 | 2.0 | 0.00 | 0.05 | 0.05 | 64 | 1015.9 |
| 20260503212238 | 77 | 100 | 5.0 | 8.0 | 0.00 | 0.05 | 0.05 | 63 | 1015.9 |
| 20260503211735 | 78 | 162 | 5.0 | 7.0 | 0.00 | 0.05 | 0.05 | 61 | 1015.7 |
| 20260503211231 | 78 | 93 | 6.0 | 8.0 | 0.00 | 0.05 | 0.05 | 62 | 1015.8 |
| 20260503210727 | 77 | 232 | 0.0 | 1.0 | 0.00 | 0.05 | 0.05 | 60 | 1015.9 |
| 20260503210225 | 78 | 182 | 2.0 | 2.0 | 0.00 | 0.05 | 0.05 | 60 | 1016.0 |
| 20260503205720 | 78 | 333 | 2.0 | 3.0 | 0.00 | 0.05 | 0.05 | 59 | 1015.9 |
| 20260503205216 | 78 | 102 | 2.0 | 3.0 | 0.00 | 0.05 | 0.05 | 60 | 1015.7 |
| 20260503204713 | 78 | 3 | 5.0 | 5.0 | 0.00 | 0.05 | 0.05 | 59 | 1016.1 |
| 20260503204211 | 79 | 130 | 5.0 | 7.0 | 0.00 | 0.05 | 0.05 | 58 | 1016.0 |
| 20260503203708 | 79 | 103 | 2.0 | 3.0 | 0.00 | 0.05 | 0.05 | 59 | 1015.7 |
| 20260503203205 | 80 | 250 | 2.0 | 5.0 | 0.00 | 0.05 | 0.05 | 57 | 1016.1 |
| 20260503202702 | 81 | 112 | 1.0 | 2.0 | 0.00 | 0.05 | 0.05 | 57 | 1016.1 |
| 20260503202200 | 79 | 312 | 1.0 | 1.0 | 0.00 | 0.05 | 0.05 | 59 | 1016.0 |
| 20260503201658 | 79 | 148 | 1.0 | 2.0 | 0.00 | 0.05 | 0.05 | 59 | 1016.1 |
| 20260503201155 | 80 | 127 | 5.0 | 7.0 | 0.00 | 0.05 | 0.05 | 56 | 1016.0 |
| 20260503200651 | 80 | 139 | 6.0 | 7.0 | 0.00 | 0.05 | 0.05 | 57 | 1016.0 |
| 20260503200148 | 79 | 181 | 3.0 | 5.0 | 0.00 | 0.05 | 0.05 | 57 | 1016.3 |
| 20260503195644 | 79 | 135 | 2.0 | 3.0 | 0.00 | 0.05 | 0.05 | 57 | 1016.3 |
| 20260503195142 | 80 | 107 | 4.0 | 6.0 | 0.00 | 0.05 | 0.05 | 57 | 1016.5 |
| 20260503194639 | 79 | 241 | 1.0 | 1.0 | 0.00 | 0.05 | 0.05 | 58 | 1016.4 |
| 20260503194134 | 81 | 294 | 2.0 | 3.0 | 0.00 | 0.05 | 0.05 | 57 | 1016.7 |
| 20260503193631 | 80 | 134 | 1.0 | 2.0 | 0.00 | 0.05 | 0.05 | 59 | 1016.8 |
| 20260503193126 | 80 | 255 | 0.0 | 1.0 | 0.00 | 0.05 | 0.05 | 59 | 1016.9 |
| 20260503192622 | 78 | 165 | 2.0 | 2.0 | 0.00 | 0.05 | 0.05 | 61 | 1016.9 |
| 20260503192118 | 79 | 348 | 3.0 | 5.0 | 0.00 | 0.05 | 0.05 | 60 | 1017.0 |
| 20260503191615 | 81 | 233 | 3.0 | 5.0 | 0.00 | 0.05 | 0.05 | 58 | 1017.3 |
| 20260503191112 | 79 | 247 | 1.0 | 1.0 | 0.00 | 0.05 | 0.05 | 61 | 1017.2 |
| 20260503190609 | 78 | 290 | 0.0 | 1.0 | 0.00 | 0.05 | 0.05 | 61 | 1017.2 |
| 20260503190106 | 78 | 246 | 0.0 | 1.0 | 0.00 | 0.05 | 0.05 | 61 | 1017.5 |
| 20260503185603 | 78 | 115 | 3.0 | 3.0 | 0.00 | 0.05 | 0.05 | 61 | 1017.4 |
| 20260503185102 | 80 | 90 | 1.0 | 2.0 | 0.00 | 0.05 | 0.05 | 60 | 1017.5 |
| 20260503184558 | 80 | 116 | 2.0 | 5.0 | 0.00 | 0.05 | 0.05 | 61 | 1017.5 |
| 20260503184055 | 80 | 128 | 2.0 | 3.0 | 0.00 | 0.05 | 0.05 | 60 | 1017.5 |
| 20260503183551 | 80 | 136 | 4.0 | 8.0 | 0.00 | 0.05 | 0.05 | 61 | 1017.7 |
| 20260503183049 | 79 | 290 | 2.0 | 3.0 | 0.00 | 0.05 | 0.05 | 62 | 1017.8 |
| 20260503182547 | 77 | 258 | 0.0 | 1.0 | 0.00 | 0.05 | 0.05 | 64 | 1017.7 |
| 20260503182045 | 79 | 108 | 4.0 | 6.0 | 0.00 | 0.05 | 0.05 | 61 | 1018.0 |
| 20260503181541 | 78 | 290 | 3.0 | 3.0 | 0.00 | 0.05 | 0.05 | 63 | 1018.1 |
| 20260503181038 | 78 | 101 | 3.0 | 5.0 | 0.00 | 0.05 | 0.05 | 63 | 1018.0 |
| 20260503180535 | 77 | 328 | 3.0 | 3.0 | 0.00 | 0.05 | 0.05 | 65 | 1018.0 |
| 20260503180032 | 78 | 224 | 2.0 | 6.0 | 0.00 | 0.05 | 0.05 | 64 | 1018.2 |
| 20260503175530 | 77 | 236 | 2.0 | 3.0 | 0.00 | 0.05 | 0.05 | 65 | 1018.2 |
| 20260503175027 | 77 | 295 | 3.0 | 3.0 | 0.00 | 0.05 | 0.05 | 66 | 1018.2 |
| 20260503174524 | 78 | 149 | 4.0 | 6.0 | 0.00 | 0.05 | 0.05 | 64 | 1018.2 |
| 20260503174020 | 76 | 222 | 2.0 | 2.0 | 0.00 | 0.05 | 0.05 | 68 | 1018.3 |
| 20260503173515 | 76 | 133 | 0.0 | 2.0 | 0.00 | 0.05 | 0.05 | 67 | 1018.3 |
| 20260503173012 | 77 | 14 | 3.0 | 8.0 | 0.00 | 0.05 | 0.05 | 66 | 1018.2 |
| 20260503172510 | 77 | 201 | 0.0 | 1.0 | 0.00 | 0.05 | 0.05 | 67 | 1018.1 |
| 20260503172006 | 77 | 258 | 1.0 | 1.0 | 0.00 | 0.05 | 0.05 | 67 | 1018.2 |
| 20260503171503 | 76 | 184 | 2.0 | 3.0 | 0.00 | 0.05 | 0.05 | 67 | 1018.4 |
| 20260503171000 | 76 | 73 | 3.0 | 5.0 | 0.00 | 0.05 | 0.05 | 66 | 1018.4 |
| 20260503170456 | 76 | 247 | 0.0 | 0.0 | 0.00 | 0.05 | 0.05 | 67 | 1018.5 |
| 20260503150849 | 69 | 203 | 1.0 | 2.0 | 0.00 | 0.05 | 0.05 | 82 | 1019.2 |
| 20260503150345 | 69 | 345 | 1.0 | 2.0 | 0.00 | 0.05 | 0.05 | 83 | 1019.3 |